Regional Weather Roundup
Issued by NWS

Home | Current Version | Previous Version | Text Only | Print | Product List | Glossary On
Versions: 1 2 3 4 5 6 7 8 9 10 11 12 13 14 15 16 17 18 19 20 21 22 23 24 25 26 27 28 29 30 31 32 33 34 35 36 37 38 39 40 41 42 43 44 45 46 47 48 49 50
376
ASUS44 KFWD 091515
RWRTX
NORTH TEXAS HOURLY WEATHER ROUNDUP
NATIONAL WEATHER SERVICE FORT WORTH TX
900 AM CST TUE FEB 09 2016

NOTE: "FAIR" INDICATES FEW OR NO CLOUDS BELOW 12,000 FEET WITH NO
SIGNIFICANT WEATHER AND/OR OBSTRUCTIONS TO VISIBILITY.

TXZ118-119-091600-
DALLAS/FORT WORTH METROPLEX

CITY           SKY/WX    TMP DP  RH WIND       PRES   REMARKS
DFW AIRPORT    MOSUNNY   44  13  28 W13       30.30R WCI  38
DALLAS LOVE    MOSUNNY   44  15  31 W7        30.31R
FTW MEACHAM    MOSUNNY   42  15  33 W9        30.32R WCI  37
DAL-EXECUTIVE  SUNNY     41  14  33 W8        30.30R WCI  36
FTW-ALLIANCE   MOSUNNY   42  14  32 W12G20    30.31R WCI  36
FTW-SPINKS     SUNNY     43  16  33 W10       30.34R WCI  37
ARLINGTON      MOSUNNY   44  12  27 W7        30.32R
GRAND PRAIRIE  SUNNY     43  12  28 W7        30.33R WCI  39
ADDISON        SUNNY     43  16  33 W8        30.29R WCI  38
MESQUITE       SUNNY     45  12  26 W9        30.30S WCI  40
LANCASTER      SUNNY     40  13  32 W8        30.33R WCI  35
$$

TXZ091>094-102>105-117-120-121-131>134-091600-
NORTH CENTRAL TEXAS

CITY           SKY/WX    TMP DP  RH WIND       PRES   REMARKS
SHRMAN/DENISON SUNNY     42  18  37 NW9       30.28S WCI  37
GAINESVILLE    SUNNY     41  17  36 W14       30.30S WCI  34
BOWIE          SUNNY     41  20  43 NW10      30.31R WCI  35
BRIDGEPORT     SUNNY     40  21  45 W3        30.34R
DECATUR        SUNNY     38  15  39 W9        30.30R WCI  31
DENTON         MOSUNNY   43  17  35 W9        30.30R WCI  38
MCKINNEY       SUNNY     43  16  33 NW13      30.29R WCI  36
GREENVILLE     SUNNY     43  14  31 NW10      30.29R WCI  37
ROCKWALL       SUNNY     43  16  33 N8        30.28R WCI  39
TERRELL        SUNNY     44  17  33 NW8       30.30S WCI  39
WAXAHACHIE     SUNNY     42  17  35 W10       30.33R WCI  36
CLEBURNE       SUNNY     41  14  33 W7        30.34R WCI  36
GRANBURY       SUNNY     45  17  32 W3        30.35S
$$

TXZ083>090-098>101-113>116-127>130-139>142-154-155-091600-
WESTERN NORTH TEXAS

CITY           SKY/WX    TMP DP  RH WIND       PRES   REMARKS
WICHITA FALLS  PTSUNNY   38  22  52 W12       30.31R WCI  30
WF-KICKAPOO    SUNNY     41  22  47 W7        30.32S WCI  36
VERNON         SUNNY     39  22  51 NW8       30.33R WCI  33
ABILENE        SUNNY     45  25  45 W7        30.36R
ABILENE-DYESS  SUNNY     47  24  39 W9        30.35
BRECKENRIDGE   SUNNY     43  22  44 SW6       30.34F WCI  39
GRAHAM         SUNNY     37  22  54 CALM      30.33R
MINERAL WELLS  SUNNY     40  19  43 W5        30.32R WCI  37
STEPHENVILLE   SUNNY     42  16  35 CALM      30.37R
COMANCHE       SUNNY     48  20  32 W8        30.37R
BROWNWOOD      SUNNY     37  21  52 MISG      30.38R
COLEMAN        SUNNY     47  22  38 W6        30.37S
$$

TXZ143>147-156>162-174-175-091600-
CENTRAL TEXAS

CITY           SKY/WX    TMP DP  RH WIND       PRES   REMARKS
WACO           SUNNY     44  15  31 W10       30.36R WCI  39
WACO-TSTC      SUNNY     43  16  33 W6        30.36R WCI  39
WACO-MCGREGOR  SUNNY     45  18  34 W7        30.36R
HILLSBORO      SUNNY     38  19  44 CALM      30.35R
CORSICANA      MOSUNNY   44  16  32 W13       30.34R WCI  38
MEXIA          SUNNY     43  14  31 W7        30.34R WCI  39
HEARNE         MOSUNNY   39  22  49 CALM      30.39R
CAMERON        SUNNY     43  20  40 W5        30.37S
TEMPLE         SUNNY     45  18  34 W5        30.36S
KILLEEN        SUNNY     49  12  22 NW8       30.35R
KILLEEN-SKYLRK SUNNY     47  13  25 NW8       30.36S
GATESVILLE     SUNNY     45  21  39 CALM      30.38R
HAMILTON       SUNNY     49  18  29 NW10      30.35S
LAMPASAS       SUNNY     50  22  33 W6        30.36R
$$

TXZ095>097-106>112-122>126-135>138-148>153-164>167-091600-
EAST TEXAS

CITY           SKY/WX    TMP DP  RH WIND       PRES   REMARKS
PARIS          SUNNY     39  16  38 NW14      30.24S WCI  31
SULPHUR SPRNGS SUNNY     41  19  41 CALM      30.30R
MOUNT PLEASANT SUNNY     42  17  37 W15       30.28R WCI  34
GILMER         SUNNY     42  16  35 NW9G18    30.27S WCI  36
MINEOLA        SUNNY     43  18  36 W9        30.29S WCI  37
TYLER          SUNNY     44  16  32 NW9       30.28S WCI  39
LONGVIEW       SUNNY     43  17  35 NW16G24   30.27R WCI  35
MARSHALL       SUNNY     42  15  32 NW10G21   30.28R WCI  36
ATHENS         SUNNY     43  18  36 CALM      30.29S
PALESTINE      SUNNY     40  22  50 W6        30.33S WCI  35
JACKSONVILLE   SUNNY     43  15  31 NW12      30.30R WCI  37
HENDERSON      SUNNY     43  17  36 NW8       30.29R WCI  38
CENTER         FAIR      43  18  36 NW8       30.28R WCI  38
NACOGDOCHES    SUNNY     43  19  39 NW10      30.30R WCI  37
LUFKIN         MOSUNNY   42  18  37 W8        30.32R WCI  37
$$

SUPPLEMENTAL OBSERVATIONS (CENTRAL)

CITY           SKY/WX    TMP DP  RH WIND       PRES   REMARKS
PAT MAYSE LAKE   N/A     39  14  35 W10         N/A  WCI  32
GREENVILLE       N/A     43  19  39 NW6         N/A  WCI  39
CEDAR HILL       N/A     43  16  33 SW3         N/A
ATHENS           N/A     48  18  29 NW5         N/A
LAKE LIMESTONE   N/A     46  19  34 W6          N/A
MCGREGOR         N/A     46  21  36 W5          N/A
TEMPLE           N/A     46  18  31 W5          N/A
$$

SUPPLEMENTAL OBSERVATIONS (WEST)

CITY           SKY/WX    TMP DP  RH WIND       PRES   REMARKS
MILLERS CREEK    N/A     39  28  65 SW7         N/A  WCI  34
POSSUM KINGDOM   N/A     43  19  39 W8          N/A  WCI  38
GRANBURY         N/A     46  18  31 W8          N/A
COMANCHE         N/A     48  18  29 W10         N/A
HAMBY            N/A     45  25  45 W7          N/A
IVIE RESERVOIR   N/A     45  21  39 W9          N/A  WCI  40
COLORADO BEND    N/A     45  19  36 NW6         N/A
$$

SUPPLEMENTAL OBSERVATIONS (EAST)

CITY           SKY/WX    TMP DP  RH WIND       PRES   REMARKS
CLARKSVILLE      N/A     43  21  42 NW7         N/A  WCI  39
TEXARKANA        N/A     43  19  39 W8G17       N/A  WCI  38
CADDO LAKE       N/A     45  18  33 NW8G16      N/A
GILMER           N/A     45  18  33 NW9         N/A  WCI  40
HENDERSON        N/A     45  18  33 NW13        N/A  WCI  38
LUFKIN           N/A     45  21  39 MISG        N/A
N SABINE NF      N/A     41  21  45 MISG        N/A
S SABINE NF      N/A     45  18  33 W6G17       N/A
$$

SUPPLEMENTAL OBSERVATIONS ARE A COLLECTION OF AUTOMATED INSTRUMENTS
THAT ARE MAINTAINED BY A VARIETY OF FEDERAL AND STATE AGENCIES.
CERTAIN ELEMENTS...SUCH AS HUMIDITY VALUES AND SUSTAINED WIND
SPEEDS...MAY BE APPROXIMATED.





USA.gov is the U.S. government's official web portal to all federal, state and local government web resources and services.